Location: Heidgraben
(53.7081°N, 9.6576°E)
Time: 23:49:59
(UTC+00:00)

Cosmos 2333 Rocket - Pass Details

Date: 01 November 2020
Orbit: 841 x 861 km, 70.8° (Epoch: 28 November)

Event Time Altitude Azimuth Distance (km) Brightness Sun altitude
Exits shadow 05:03:21 - 328° (NNW) 3,194 4.8 -11.9°
Reaches altitude 10° 05:05:14 10° 330° (NNW) 2,480 4.3 -11.7°
Maximum altitude 05:10:54 67° 53° (NE) 913 2.6 -10.8°
Drops below altitude 10° 05:16:32 10° 137° (SE) 2,457 5.5 -10.0°
Sets 05:18:59 0° 140° (SE) 3,388 6.2 -9.7°
